Regional Weather Roundup
Issued by NWS Sioux Falls, SD

Home | Current Version | Previous Version | Text Only | Print | Product List | Glossary Off
Versions: 1 2 3 4 5 6 7 8 9 10 11 12 13 14 15 16 17 18 19 20 21 22 23 24 25 26 27 28 29 30 31 32 33 34 35 36 37 38 39 40 41 42 43 44 45 46 47 48 49 50

000
ASUS43 KFSD 030010
RWRFSD

WEATHER ROUNDUP FOR SE SOUTH DAKOTA/SW MINNESOTA/NW IOWA
NATIONAL WEATHER SERVICE SIOUX FALLS SD
700 PM CDT MON MAY 02 2016

NOTE: "FAIR" INDICATES FEW OR NO CLOUDS BELOW 12,000 FEET WITH NO
SIGNIFICANT WEATHER AND OR OBSTRUCTIONS TO VISIBILITY.


SDZ038>040-050-052>070-030100-
SOUTHEAST SOUTH DAKOTA

CITY           SKY/WX    TMP DP  RH WIND       PRES   REMARKS
BROOKINGS      SUNNY     62  32  32 SW6       29.99F
CHAMBERLAIN    CLOUDY    57  49  73 E3        30.00F
6HR MIN TEMP:  56; 6HR MAX TEMP:  66; 6HR PCP:  0.05;

HURON          CLOUDY    58  45  62 W9        29.99S
6HR MIN TEMP:  58; 6HR MAX TEMP:  66; 6HR PCP: TRACE;

MADISON        FAIR      59  32  36 SW8       30.00F
MITCHELL       PTSUNNY   62  40  44 S6        30.00S
6HR MIN TEMP:  61; 6HR MAX TEMP:  65;

SIOUX FALLS    PTSUNNY   61  37  41 CALM      30.01F
6HR MIN TEMP:  60; 6HR MAX TEMP:  63;

WINNER         FAIR      57  46  66 E8        30.00F
YANKTON        MOSUNNY   61  36  39 S3        30.02S
$$

MNZ071-072-080-081-089-090-097-098-030100-
SOUTHWEST MINNESOTA

CITY           SKY/WX    TMP DP  RH WIND       PRES   REMARKS
FAIRMONT       MOSUNNY   61  34  36 W6        30.02S
JACKSON        MOSUNNY   61  32  33 SW5       30.03S
LUVERNE        PTSUNNY   61  34  36 W7        30.02S
MARSHALL       MOSUNNY   66  34  30 SW8       29.99F
6HR MIN TEMP:  61; 6HR MAX TEMP:  66;

MONTEVIDEO     SUNNY     66  30  26 W3        30.00S
PIPESTONE      SUNNY     61  37  41 SW7       30.01S
REDWOOD FALLS  MOSUNNY   63  34  33 S7        29.99S
TRACY          MOSUNNY   63  35  35 SW3       30.00F
WINDOM         SUNNY     63  32  31 CALM      30.02S
WORTHINGTON    SUNNY     60  40  47 SW3       30.02F
$$

IAZ001>003-012>014-020>022-031-032-NEZ013-014-SDZ071-030100-
NORTHWEST IOWA

CITY           SKY/WX    TMP DP  RH WIND       PRES   REMARKS
CHEROKEE       MOSUNNY   61  36  39 CALM      30.03F
DENISON        MOSUNNY   61  37  41 W7        30.02S
ESTHERVILLE    SUNNY     60  37  42 CALM      30.02F
LE MARS        PTSUNNY   61  41  48 CALM      30.04S
ORANGE CITY    SUNNY     61  39  44 SW5       30.03F
SHELDON        SUNNY     61  36  39 SW3       30.01F
SIOUX CITY     PTSUNNY   65  39  38 CALM      30.03F
6HR MIN TEMP:  62; 6HR MAX TEMP:  67;

SPENCER        MOSUNNY   61  35  37 SW3       30.03S
6HR MIN TEMP:  58; 6HR MAX TEMP:  63;

STORM LAKE     SUNNY     61  36  39 W6        30.04S
$$

ABBREVIATIONS USED IN REMARKS
   TC - TEMPERATURE IN CELSIUS
  WCI - WIND CHILL INDEX
   HX - HEAT INDEX
  VSB - VISIBILITY





USA.gov is the U.S. government's official web portal to all federal, state and local government web resources and services.